Jacksonville, IL

8:01 AM CST on January 17, 2017 (GMT -0600)
Jacksonville Municipal

Weather History for KIJX - March, 2014

Change the Weather History Date:

Friday, March 7, 2014

  Actual Average (KSPI) Record (KSPI)
Temperature  
Mean Temperature 42 °F -  
Max Temperature 57 °F 46 °F 81 °F (2000)
Min Temperature 27 °F 27 °F 2 °F (1943)
Degree Days  
Heating Degree Days 23    
Moisture  
Dew Point 29 °F    
Average Humidity 61    
Maximum Humidity 85    
Minimum Humidity 38    
Precipitation  
Precipitation 0.00 in - - ()
Sea Level Pressure  
Sea Level Pressure 29.97 in    
Wind  
Wind Speed 6 mph (South)    
Max Wind Speed 15 mph    
Max Gust Speed 17 mph    
Visibility 10 miles    
Events      
Averages and records for this station are not official NWS values.
T = Trace of Precipitation, MM = Missing Value Source: NWS Daily Summary

Daily Weather History Graph

Daily Weather History Graph

Search for Another Location

Airport or City:

Trip Planner

Search our weather history database for the weather conditions in past years. The results will help you decide how hot, cold, wet, or windy it might be!

Date:

Astronomy

Mar. 07, 2014 Rise Set
Actual Time 6:24 AM CST 5:59 PM CST
Civil Twilight 5:58 AM CST 6:26 PM CST
Nautical Twilight 5:26 AM CST 6:57 PM CST
Astronomical Twilight 4:55 AM CST 7:29 PM CST
Moon 10:18 AM CST (3/7) 12:03 AM CST (3/7)
Length of Visible Light 12h 28m
Length of Day
11h 34m
Waxing Crescent, 42% of the Moon is Illuminated
Mar 7
Waxing Crescent
Mar 8
First Quarter
Mar 16
Full
Mar 23
Last Quarter
Mar 30
New

Hourly Weather History & Observations

Time (CST) Temp. Windchill Dew Point Humidity Pressure Visibility Wind Dir Wind Speed Gust Speed Precip Events Conditions
12:15 AM 28.9 °F 23.9 °F 24.1 °F 82% 30.07 in 10.0 mi SE 4.6 mph - N/A   Clear
12:35 AM 28.4 °F 24.6 °F 23.9 °F 83% 30.07 in 10.0 mi SE 3.5 mph - N/A   Clear
12:55 AM 28.0 °F 24.2 °F 23.5 °F 83% 30.07 in 10.0 mi SE 3.5 mph - N/A   Clear
1:15 AM 29.1 °F 23.0 °F 24.8 °F 84% 30.07 in 7.0 mi SE 5.8 mph - N/A   Clear
1:35 AM 28.9 °F 23.9 °F 24.6 °F 84% 30.06 in 7.0 mi SE 4.6 mph - N/A   Clear
1:55 AM 27.9 °F 21.5 °F 23.9 °F 85% 30.05 in 7.0 mi SE 5.8 mph - N/A   Clear
2:15 AM 28.6 °F 23.5 °F 24.1 °F 83% 30.04 in 10.0 mi SE 4.6 mph - N/A   Clear
2:35 AM 29.7 °F 24.7 °F 24.3 °F 80% 30.03 in 10.0 mi SE 4.6 mph - N/A   Clear
2:55 AM 29.5 °F 24.5 °F 24.3 °F 81% 30.03 in 10.0 mi SE 4.6 mph - N/A   Clear
3:15 AM 29.7 °F 24.7 °F 23.4 °F 77% 30.03 in 10.0 mi SSE 4.6 mph - N/A   Clear
3:35 AM 30.6 °F 23.8 °F 23.9 °F 76% 30.02 in 10.0 mi SSE 6.9 mph - N/A   Clear
3:55 AM 31.1 °F 24.5 °F 24.3 °F 76% 30.02 in 10.0 mi South 6.9 mph - N/A   Clear
4:15 AM 32.0 °F 24.8 °F 24.4 °F 74% 30.01 in 10.0 mi South 8.1 mph - N/A   Clear
4:35 AM 31.6 °F 24.4 °F 24.3 °F 74% 30.01 in 10.0 mi South 8.1 mph - N/A   Clear
4:55 AM 32.0 °F 24.8 °F 24.4 °F 74% 30.01 in 10.0 mi South 8.1 mph - N/A   Clear
5:15 AM 31.6 °F 24.4 °F 24.4 °F 75% 30.00 in 10.0 mi South 8.1 mph - N/A   Clear
5:35 AM 31.1 °F 23.7 °F 24.4 °F 76% 30.01 in 10.0 mi South 8.1 mph - N/A   Clear
5:55 AM 30.9 °F 24.3 °F 24.6 °F 77% 30.01 in 7.0 mi South 6.9 mph - N/A   Clear
6:15 AM 30.9 °F 25.2 °F 24.6 °F 77% 30.00 in 7.0 mi South 5.8 mph - N/A   Clear
6:35 AM 31.1 °F 25.4 °F 24.6 °F 77% 30.00 in 7.0 mi South 5.8 mph - N/A   Clear
6:55 AM 32.0 °F 26.4 °F 25.0 °F 75% 30.00 in 7.0 mi South 5.8 mph - N/A   Clear
7:15 AM 32.7 °F 26.4 °F 25.9 °F 76% 30.01 in 7.0 mi South 6.9 mph - N/A   Clear
7:35 AM 34.3 °F 29.2 °F 26.8 °F 74% 30.01 in 7.0 mi South 5.8 mph - N/A   Clear
7:50 AM 35.6 °F 30.7 °F 27.3 °F 72% 30.00 in 7.0 mi South 5.8 mph - N/A   Clear
8:15 AM 37.6 °F 31.0 °F 27.5 °F 67% 30.00 in 7.0 mi South 9.2 mph - N/A   Clear
8:35 AM 39.4 °F 33.2 °F 28.0 °F 64% 30.01 in 10.0 mi SSW 9.2 mph - N/A   Clear
8:55 AM 40.3 °F 34.4 °F 27.9 °F 61% 30.00 in 10.0 mi SSW 9.2 mph - N/A   Clear
9:15 AM 42.3 °F 36.3 °F 28.4 °F 58% 30.00 in 10.0 mi SSW 10.4 mph - N/A   Clear
9:35 AM 43.7 °F 38.6 °F 28.8 °F 56% 30.00 in 10.0 mi SSW 9.2 mph - N/A   Clear
9:55 AM 44.8 °F 39.4 °F 28.4 °F 53% 30.00 in 10.0 mi SSW 10.4 mph - N/A   Clear
10:15 AM 46.4 °F 41.5 °F 28.9 °F 51% 29.99 in 10.0 mi SSW 10.4 mph - N/A   Clear
10:35 AM 48.0 °F - 29.8 °F 49% 29.99 in 10.0 mi SSW 11.5 mph - N/A   Clear
10:55 AM 49.5 °F - 29.1 °F 46% 29.99 in 10.0 mi SSW 10.4 mph - N/A   Clear
11:15 AM 50.7 °F - 29.5 °F 44% 29.99 in 10.0 mi SSW 9.2 mph - N/A   Clear
11:35 AM 52.2 °F - 29.8 °F 42% 29.97 in 10.0 mi SSE 9.2 mph - N/A   Clear
11:55 AM 53.4 °F - 30.9 °F 42% 29.97 in 10.0 mi South 9.2 mph - N/A   Clear
12:15 PM 54.1 °F - 30.4 °F 40% 29.96 in 10.0 mi SSW 10.4 mph - N/A   Clear
12:30 PM 54.9 °F - 30.0 °F 39% 29.95 in 10.0 mi SSW 15.0 mph - N/A   Clear
12:55 PM 55.9 °F - 31.1 °F 39% 29.94 in 10.0 mi South 11.5 mph - N/A   Clear
1:15 PM 56.1 °F - 31.6 °F 39% 29.93 in 10.0 mi SSW 12.7 mph - N/A   Clear
1:35 PM 54.7 °F - 31.1 °F 41% 29.93 in 10.0 mi SSW 10.4 mph - N/A   Clear
1:55 PM 56.1 °F - 31.5 °F 39% 29.91 in 10.0 mi SSW 9.2 mph - N/A   Clear
2:15 PM 55.4 °F - 31.6 °F 40% 29.90 in 10.0 mi South 6.9 mph - N/A   Clear
2:35 PM 56.8 °F - 32.5 °F 40% 29.90 in 10.0 mi SSE 11.5 mph - N/A   Clear
2:55 PM 57.2 °F - 31.6 °F 38% 29.89 in 10.0 mi SSE 11.5 mph - N/A   Clear
3:15 PM 55.6 °F - 31.8 °F 41% 29.89 in 10.0 mi South 10.4 mph - N/A   Clear
3:35 PM 56.7 °F - 31.8 °F 39% 29.89 in 10.0 mi South 9.2 mph 17.3 mph N/A   Clear
3:55 PM 55.4 °F - 32.0 °F 41% 29.89 in 10.0 mi South 10.4 mph - N/A   Clear
4:15 PM 55.6 °F - 31.8 °F 41% 29.88 in 10.0 mi South 9.2 mph - N/A   Clear
4:35 PM 55.4 °F - 31.6 °F 40% 29.88 in 10.0 mi SSE 8.1 mph - N/A   Clear
4:55 PM 53.8 °F - 32.2 °F 44% 29.89 in 10.0 mi South 6.9 mph - N/A   Clear
5:10 PM 54.1 °F - 32.9 °F 45% 29.90 in 10.0 mi South 4.6 mph - N/A   Clear
5:35 PM 52.7 °F - 32.2 °F 46% 29.90 in 10.0 mi South 3.5 mph - N/A   Clear
5:55 PM 50.4 °F - 32.5 °F 50% 29.91 in 10.0 mi Calm Calm - N/A   Clear
6:15 PM 49.6 °F - 32.0 °F 51% 29.93 in 10.0 mi Calm Calm - N/A   Clear
6:35 PM 50.9 °F - 32.0 °F 48% 29.93 in 10.0 mi South 3.5 mph - N/A   Clear
6:55 PM 50.5 °F - 32.0 °F 49% 29.93 in 10.0 mi South 4.6 mph - N/A   Clear
7:15 PM 49.3 °F - 31.6 °F 51% 29.93 in 10.0 mi South 3.5 mph - N/A   Clear
7:35 PM 49.1 °F - 31.1 °F 50% 29.93 in 10.0 mi South 3.5 mph - N/A   Clear
7:55 PM 47.1 °F - 31.1 °F 54% 29.94 in 10.0 mi SSE 3.5 mph - N/A   Clear
8:15 PM 42.4 °F - 31.3 °F 65% 29.94 in 10.0 mi Calm Calm - N/A   Clear
8:35 PM 40.5 °F - 31.3 °F 70% 29.95 in 10.0 mi Calm Calm - N/A   Clear
8:55 PM 40.8 °F - 30.7 °F 67% 29.95 in 10.0 mi Calm Calm - N/A   Clear
9:15 PM 38.3 °F - 29.8 °F 72% 29.96 in 10.0 mi Calm Calm - N/A   Clear
9:35 PM 40.1 °F - 30.4 °F 68% 29.96 in 10.0 mi Calm Calm - N/A   Clear
9:55 PM 40.8 °F - 30.6 °F 67% 29.96 in 10.0 mi Calm Calm - N/A   Clear
10:15 PM 39.6 °F 36.3 °F 29.8 °F 68% 29.97 in 10.0 mi West 4.6 mph - N/A   Clear
10:35 PM 39.6 °F 33.5 °F 31.5 °F 73% 29.98 in 10.0 mi NNW 9.2 mph - N/A   Clear
10:55 PM 39.2 °F 31.6 °F 32.2 °F 76% 29.98 in 10.0 mi NNW 12.7 mph - N/A   Clear
11:15 PM 39.6 °F 33.5 °F 32.7 °F 76% 29.98 in 10.0 mi NNW 9.2 mph - N/A   Clear
11:35 PM 38.5 °F 32.1 °F 32.9 °F 80% 29.99 in 7.0 mi NNW 9.2 mph - N/A   Clear
11:55 PM 37.9 °F 32.1 °F 32.5 °F 81% 30.00 in 7.0 mi NW 8.1 mph - N/A   Clear